Location: Usti nad Labem
(50.6670°N, 14.0330°E)
Time: 21:58:14
(UTC+01:00)

Envisat - Pass Details

Date: 04 December 2020
Orbit: 764 x 766 km, 98.1° (Epoch: 15 January)

Event Time Altitude Azimuth Distance (km) Brightness Sun altitude
Rises 04:26:23 0° 30° (NNE) 3,245 6.6 -30.8°
Reaches altitude 10° 04:30:11 10° 59° (ENE) 2,311 6.2 -30.2°
Maximum altitude 04:32:20 13° 85° (E) 2,130 6.2 -29.9°
Drops below altitude 10° 04:34:30 10° 110° (ESE) 2,303 6.3 -29.5°
Sets 04:38:15 0° 139° (SE) 3,222 6.8 -28.9°
